When you browse on this site, cookies collect data to enhance your experience and personalize the content and advertising you see.
Visit our Privacy Policy to learn more. By continuing to use the site, you agree to this use of cookies and data.
  • In Hungary
  • List of Countries
  • For 7 days
  • Water Temperature
  • Satellite Maps
  • Weather Map
  • News
  • Weather Widgets
  • user-avatar
    Login

    Hourly Weather Karasica

    Today, 19 December, Wednesday

    Time Temperature Precipitation Wind Pressure Humidity
    00:00 -1°C° 0 mm 3 mps 759 mmHg 91%
    01:00 -2°C° 0 mm 3 mps 759 mmHg 91%
    02:00 -2°C° 0 mm 3 mps 759 mmHg 91%
    03:00 -2°C° 0 mm 3 mps 759 mmHg 91%
    04:00 -4°C° 0 mm 3 mps 759 mmHg 91%
    05:00 -4°C° 0 mm 3 mps 759 mmHg 91%
    06:00 -4°C° 0 mm 3 mps 759 mmHg 91%
    07:00 -5°C° 0 mm 3 mps 758 mmHg 90%
    08:00 -5°C° 0 mm 4 mps 758 mmHg 88%
    09:00 -4°C° 0 mm 4 mps 758 mmHg 85%
    10:00 -5°C° 0 mm 5 mps 758 mmHg 83%
    11:00 -5°C° 0 mm 5 mps 758 mmHg 81%
    12:00 -4°C° 0 mm 5 mps 757 mmHg 78%
    13:00 -4°C° 0 mm 5 mps 757 mmHg 76%
    14:00 -5°C° 0 mm 5 mps 756 mmHg 78%
    15:00 -5°C° 0 mm 5 mps 756 mmHg 81%
    16:00 -6°C° 0 mm 5 mps 756 mmHg 83%
    17:00 -6°C° 0 mm 5 mps 755 mmHg 83%
    18:00 -6°C° 0 mm 5 mps 755 mmHg 84%
    19:00 -6°C° 0 mm 5 mps 755 mmHg 84%
    20:00 -6°C° 0 mm 5 mps 755 mmHg 84%
    21:00 -6°C° 0 mm 5 mps 755 mmHg 85%
    22:00 -6°C° 0 mm 5 mps 754 mmHg 85%
    23:00 -5°C° 0 mm 4 mps 754 mmHg 85%

    Tomorrow, 20 December, Thursday

    Time Temperature Precipitation Wind Pressure Humidity
    00:00 -5°C° 0 mm 4 mps 754 mmHg 85%
    01:00 -5°C° 0 mm 4 mps 754 mmHg 85%
    02:00 -5°C° 0 mm 4 mps 754 mmHg 85%
    03:00 -5°C° 0 mm 4 mps 753 mmHg 85%
    04:00 -5°C° 0 mm 3 mps 753 mmHg 85%
    05:00 -5°C° 0 mm 3 mps 753 mmHg 85%
    06:00 -5°C° 0 mm 3 mps 753 mmHg 84%
    07:00 -4°C° 0 mm 3 mps 753 mmHg 83%
    08:00 -4°C° 0 mm 3 mps 753 mmHg 81%
    09:00 -2°C° 0 mm 3 mps 753 mmHg 79%
    10:00 -3°C° 0 mm 4 mps 753 mmHg 77%
    11:00 -3°C° 0 mm 4 mps 753 mmHg 76%
    12:00 -1°C° 0 mm 3 mps 752 mmHg 75%
    13:00 -1°C° 0 mm 3 mps 752 mmHg 74%
    14:00 -1°C° 0 mm 3 mps 752 mmHg 77%
    15:00 -2°C° 0 mm 3 mps 752 mmHg 80%
    16:00 -2°C° 0 mm 3 mps 752 mmHg 82%
    17:00 -2°C° 0.1 mm 3 mps 752 mmHg 84%
    18:00 -2°C° 0.1 mm 3 mps 752 mmHg 86%
    19:00 -2°C° 0.1 mm 3 mps 752 mmHg 89%
    20:00 -2°C° 0.3 mm 3 mps 752 mmHg 90%
    21:00 -2°C° 0.3 mm 3 mps 752 mmHg 91%
    22:00 -1°C° 0.3 mm 3 mps 752 mmHg 93%
    23:00 -1°C° 0.1 mm 3 mps 752 mmHg 93%

    Day after tomorrow, 21 December, Friday

    Time Temperature Precipitation Wind Pressure Humidity
    00:00 -2°C° 0.1 mm 4 mps 752 mmHg 93%
    01:00 -1°C° 0.1 mm 4 mps 751 mmHg 93%
    02:00 -2°C° 0 mm 4 mps 751 mmHg 92%
    03:00 -2°C° 0 mm 4 mps 751 mmHg 92%
    04:00 -2°C° 0 mm 4 mps 751 mmHg 92%
    05:00 -2°C° 0 mm 4 mps 751 mmHg 91%
    06:00 -2°C° 0 mm 4 mps 750 mmHg 91%
    07:00 -1°C° 0 mm 4 mps 750 mmHg 91%
    08:00 -1°C° 0 mm 4 mps 750 mmHg 91%
    09:00 -1°C° 0 mm 5 mps 750 mmHg 90%
    10:00 0°C° 0 mm 5 mps 750 mmHg 90%
    11:00 0°C° 0 mm 5 mps 749 mmHg 90%
    12:00 0°C° 0 mm 4 mps 749 mmHg 89%
    13:00 0°C° 0 mm 4 mps 748 mmHg 89%
    14:00 0°C° 0 mm 4 mps 747 mmHg 89%
    15:00 0°C° 0 mm 4 mps 747 mmHg 89%
    16:00 0°C° 0 mm 4 mps 746 mmHg 88%
    17:00 0°C° 0.2 mm 4 mps 746 mmHg 89%
    18:00 0°C° 0.2 mm 4 mps 745 mmHg 89%
    19:00 0°C° 0.2 mm 4 mps 744 mmHg 90%
    20:00 0°C° 0.4 mm 5 mps 743 mmHg 90%
    21:00 0°C° 0.4 mm 5 mps 743 mmHg 90%
    22:00 0°C° 0.4 mm 5 mps 742 mmHg 90%
    23:00 +1°C° 1 mm 5 mps 741 mmHg 91%

    22 December, Saturday

    Time Temperature Precipitation Wind Pressure Humidity
    00:00 +1°C° 1 mm 6 mps 740 mmHg 92%
    01:00 +1°C° 1 mm 6 mps 739 mmHg 93%
    02:00 +2°C° 0.2 mm 6 mps 739 mmHg 91%
    03:00 +2°C° 0.2 mm 7 mps 739 mmHg 89%
    04:00 +2°C° 0.2 mm 8 mps 738 mmHg 86%
    05:00 +3°C° 0.1 mm 7 mps 739 mmHg 86%
    06:00 +3°C° 0.1 mm 7 mps 739 mmHg 85%
    07:00 +2°C° 0.1 mm 7 mps 739 mmHg 85%
    08:00 +2°C° 0.1 mm 7 mps 739 mmHg 86%
    09:00 +2°C° 0.1 mm 7 mps 740 mmHg 86%
    10:00 +3°C° 0.1 mm 7 mps 740 mmHg 87%
    11:00 +3°C° 0.1 mm 7 mps 740 mmHg 87%
    12:00 +3°C° 0.1 mm 7 mps 740 mmHg 87%
    13:00 +4°C° 0.1 mm 7 mps 740 mmHg 87%
    14:00 +3°C° 0.3 mm 6 mps 739 mmHg 89%
    15:00 +3°C° 0.3 mm 6 mps 739 mmHg 90%
    16:00 +3°C° 0.3 mm 5 mps 739 mmHg 92%
    17:00 +3°C° 0.3 mm 5 mps 739 mmHg 92%
    18:00 +3°C° 0.3 mm 5 mps 739 mmHg 92%
    19:00 +3°C° 0.3 mm 6 mps 739 mmHg 92%
    20:00 +3°C° 0.2 mm 6 mps 740 mmHg 90%
    21:00 +3°C° 0.2 mm 7 mps 740 mmHg 88%
    22:00 +2°C° 0.2 mm 8 mps 740 mmHg 85%
    23:00 +1°C° 0.3 mm 8 mps 741 mmHg 85%

    23 December, Sunday

    Time Temperature Precipitation Wind Pressure Humidity
    00:00 +1°C° 0.3 mm 9 mps 742 mmHg 86%
    01:00 0°C° 0.3 mm 9 mps 743 mmHg 86%
    02:00 0°C° 0.1 mm 8 mps 744 mmHg 86%
    03:00 0°C° 0.1 mm 8 mps 745 mmHg 86%
    04:00 -1°C° 0.1 mm 7 mps 747 mmHg 86%
    05:00 -1°C° 0 mm 6 mps 747 mmHg 87%
    06:00 0°C° 0 mm 5 mps 748 mmHg 89%
    07:00 0°C° 0 mm 4 mps 749 mmHg 91%
    08:00 0°C° 0 mm 4 mps 749 mmHg 91%
    09:00 0°C° 0 mm 4 mps 750 mmHg 91%
    10:00 +1°C° 0 mm 3 mps 750 mmHg 91%
    11:00 +1°C° 0 mm 3 mps 751 mmHg 89%
    12:00 +1°C° 0 mm 3 mps 751 mmHg 87%
    13:00 +3°C° 0 mm 2 mps 751 mmHg 84%
    14:00 +2°C° 0 mm 2 mps 751 mmHg 87%
    15:00 +2°C° 0 mm 2 mps 751 mmHg 89%
    16:00 +2°C° 0 mm 1 mps 751 mmHg 91%
    17:00 +1°C° 0.2 mm 2 mps 751 mmHg 92%
    18:00 +2°C° 0.2 mm 2 mps 751 mmHg 92%
    19:00 +2°C° 0.2 mm 2 mps 751 mmHg 93%
    20:00 +1°C° 0.3 mm 3 mps 751 mmHg 92%
    21:00 0°C° 0.3 mm 4 mps 751 mmHg 92%
    22:00 +1°C° 0.3 mm 4 mps 751 mmHg 91%
    23:00 +1°C° 0.2 mm 4 mps 751 mmHg 91%

    24 December, Monday

    Time Temperature Precipitation Wind Pressure Humidity
    00:00 +1°C° 0.2 mm 5 mps 751 mmHg 91%
    01:00 +1°C° 0.2 mm 5 mps 750 mmHg 91%
    02:00 +1°C° 0.3 mm 5 mps 750 mmHg 91%
    03:00 +1°C° 0.3 mm 5 mps 750 mmHg 90%
    04:00 +1°C° 0.3 mm 5 mps 750 mmHg 90%
    05:00 +1°C° 0.3 mm 5 mps 750 mmHg 90%
    06:00 +1°C° 0.3 mm 5 mps 749 mmHg 90%
    07:00 +1°C° 0.3 mm 5 mps 749 mmHg 90%
    08:00 +1°C° 0.1 mm 5 mps 750 mmHg 89%
    09:00 +1°C° 0.1 mm 6 mps 750 mmHg 88%
    10:00 +1°C° 0.1 mm 6 mps 751 mmHg 87%
    11:00 +1°C° 0.1 mm 6 mps 751 mmHg 86%
    12:00 +1°C° 0.1 mm 6 mps 752 mmHg 85%
    13:00 0°C° 0.1 mm 7 mps 753 mmHg 84%
    14:00 +1°C° 0 mm 6 mps 753 mmHg 84%
    15:00 0°C° 0 mm 5 mps 754 mmHg 84%
    16:00 0°C° 0 mm 4 mps 755 mmHg 83%
    17:00 0°C° 0.1 mm 4 mps 755 mmHg 85%
    18:00 0°C° 0.1 mm 4 mps 756 mmHg 86%
    19:00 0°C° 0.1 mm 4 mps 756 mmHg 87%
    20:00 0°C° 0.1 mm 4 mps 756 mmHg 88%
    21:00 0°C° 0.1 mm 4 mps 757 mmHg 90%
    22:00 0°C° 0.1 mm 4 mps 757 mmHg 91%
    23:00 -1°C° 0.1 mm 4 mps 757 mmHg 90%
    Show more